Time,TemperatureF,DewpointF,PressureIn,WindDirection,WindDirectionDegrees,WindSpeedMPH,WindSpeedGustMPH,Humidity,HourlyPrecipIn,Conditions,Clouds,dailyrainin,SoftwareType,DateUTC
2013-03-08 00:03:00,39.8,31.0,30.18,WNW,290,0.0,2.0,70,0.00,,,0.00,weatherlink.com 1.10,2013-03-08 05:03:00,
2013-03-08 00:18:00,39.1,30.0,30.18,NNW,347,0.0,3.0,71,0.00,,,0.00,weatherlink.com 1.10,2013-03-08 05:18:00,
2013-03-08 00:33:00,38.8,30.0,30.18,NW,316,0.0,1.0,71,0.00,,,0.00,weatherlink.com 1.10,2013-03-08 05:33:00,
2013-03-08 00:48:00,38.5,30.0,30.18,WNW,293,1.0,2.0,71,0.00,,,0.00,weatherlink.com 1.10,2013-03-08 05:48:00,
2013-03-08 01:03:00,38.3,30.0,30.18,WNW,288,0.0,1.0,71,0.00,,,0.00,weatherlink.com 1.10,2013-03-08 06:03:00,
2013-03-08 01:18:00,37.9,30.0,30.18,WNW,291,0.0,3.0,72,0.00,,,0.00,weatherlink.com 1.10,2013-03-08 06:18:00,
2013-03-08 01:33:00,37.2,29.0,30.18,WNW,293,1.0,1.0,73,0.00,,,0.00,weatherlink.com 1.10,2013-03-08 06:33:00,
2013-03-08 01:49:00,37.4,29.0,30.17,WNW,295,0.0,2.0,72,0.00,,,0.00,weatherlink.com 1.10,2013-03-08 06:49:00,
2013-03-08 02:04:00,37.4,29.0,30.17,NW,304,1.0,4.0,72,0.00,,,0.00,weatherlink.com 1.10,2013-03-08 07:04:00,
2013-03-08 02:19:00,37.1,29.0,30.17,NW,309,1.0,3.0,72,0.00,,,0.00,weatherlink.com 1.10,2013-03-08 07:19:00,
2013-03-08 02:34:00,37.1,29.0,30.16,WNW,293,0.0,3.0,72,0.00,,,0.00,weatherlink.com 1.10,2013-03-08 07:34:00,
2013-03-08 02:49:00,37.2,29.0,30.16,West,273,1.0,6.0,71,0.00,,,0.00,weatherlink.com 1.10,2013-03-08 07:49:00,
2013-03-08 03:04:00,36.9,29.0,30.16,WNW,302,1.0,5.0,72,0.00,,,0.00,weatherlink.com 1.10,2013-03-08 08:04:00,
2013-03-08 03:19:00,36.7,28.0,30.15,West,263,0.0,4.0,72,0.00,,,0.00,weatherlink.com 1.10,2013-03-08 08:19:00,
2013-03-08 03:34:00,36.4,28.0,30.15,NNE,20,1.0,2.0,72,0.00,,,0.00,weatherlink.com 1.10,2013-03-08 08:34:00,
2013-03-08 03:49:00,36.4,28.0,30.15,WNW,288,1.0,4.0,72,0.00,,,0.00,weatherlink.com 1.10,2013-03-08 08:49:00,
2013-03-08 04:04:00,36.4,28.0,30.15,WNW,298,0.0,4.0,72,0.00,,,0.00,weatherlink.com 1.10,2013-03-08 09:04:00,
2013-03-08 04:19:00,36.0,28.0,30.15,NNW,328,0.0,2.0,73,0.00,,,0.00,weatherlink.com 1.10,2013-03-08 09:19:00,
2013-03-08 04:34:00,35.6,28.0,30.16,NW,319,0.0,3.0,74,0.00,,,0.00,weatherlink.com 1.10,2013-03-08 09:34:00,
2013-03-08 04:49:00,35.2,28.0,30.16,NE,56,1.0,2.0,75,0.00,,,0.00,weatherlink.com 1.10,2013-03-08 09:49:00,
2013-03-08 05:04:00,34.9,28.0,30.17,NW,309,0.0,1.0,75,0.00,,,0.00,weatherlink.com 1.10,2013-03-08 10:04:00,
2013-03-08 05:19:00,34.7,28.0,30.18,WNW,288,0.0,2.0,76,0.00,,,0.00,weatherlink.com 1.10,2013-03-08 10:19:00,
2013-03-08 05:34:00,34.7,28.0,30.18,WNW,286,0.0,4.0,77,0.00,,,0.00,weatherlink.com 1.10,2013-03-08 10:34:00,
2013-03-08 05:49:00,34.5,28.0,30.18,NE,41,0.0,4.0,77,0.00,,,0.00,weatherlink.com 1.10,2013-03-08 10:49:00,
2013-03-08 06:04:00,34.4,28.0,30.18,NW,312,0.0,2.0,77,0.00,,,0.00,weatherlink.com 1.10,2013-03-08 11:04:00,
2013-03-08 06:19:00,34.2,28.0,30.18,NW,304,0.0,2.0,77,0.00,,,0.00,weatherlink.com 1.10,2013-03-08 11:19:00,
2013-03-08 06:34:00,34.2,28.0,30.18,NW,311,0.0,4.0,78,0.00,,,0.00,weatherlink.com 1.10,2013-03-08 11:34:00,
2013-03-08 06:49:00,35.3,29.0,30.19,WNW,290,0.0,2.0,77,0.00,,,0.00,weatherlink.com 1.10,2013-03-08 11:49:00,
2013-03-08 07:04:00,36.8,30.0,30.20,WNW,291,0.0,1.0,75,0.00,,,0.00,weatherlink.com 1.10,2013-03-08 12:04:00,
2013-03-08 07:19:00,37.0,29.0,30.20,West,266,1.0,3.0,74,0.00,,,0.00,weatherlink.com 1.10,2013-03-08 12:19:00,
2013-03-08 07:34:00,38.3,30.0,30.21,NW,316,0.0,3.0,72,0.00,,,0.00,weatherlink.com 1.10,2013-03-08 12:34:00,
2013-03-08 07:49:00,39.2,30.0,30.21,NW,311,0.0,3.0,70,0.00,,,0.00,weatherlink.com 1.10,2013-03-08 12:49:00,
2013-03-08 08:04:00,40.3,30.0,30.21,SW,235,2.0,7.0,68,0.00,,,0.00,weatherlink.com 1.10,2013-03-08 13:04:00,
2013-03-08 08:19:00,41.1,30.0,30.21,West,281,1.0,9.0,65,0.00,,,0.00,weatherlink.com 1.10,2013-03-08 13:19:00,
2013-03-08 08:34:00,42.1,31.0,30.21,North,11,3.0,5.0,64,0.00,,,0.00,weatherlink.com 1.10,2013-03-08 13:34:00,
2013-03-08 08:50:00,43.3,31.0,30.20,NW,306,4.0,7.0,63,0.00,,,0.00,weatherlink.com 1.10,2013-03-08 13:50:00,
2013-03-08 09:05:00,43.8,31.0,30.20,WNW,287,1.0,7.0,62,0.00,,,0.00,weatherlink.com 1.10,2013-03-08 14:05:00,
2013-03-08 09:20:00,44.7,31.0,30.20,NW,307,4.0,10.0,58,0.00,,,0.00,weatherlink.com 1.10,2013-03-08 14:20:00,
2013-03-08 09:35:00,45.6,31.0,30.19,NE,47,4.0,10.0,58,0.00,,,0.00,weatherlink.com 1.10,2013-03-08 14:35:00,
2013-03-08 09:50:00,46.3,31.0,30.19,East,96,1.0,14.0,55,0.00,,,0.00,weatherlink.com 1.10,2013-03-08 14:50:00,
2013-03-08 10:05:00,46.8,31.0,30.19,NW,304,6.0,12.0,54,0.00,,,0.00,weatherlink.com 1.10,2013-03-08 15:05:00,
2013-03-08 10:20:00,46.1,28.0,30.18,SW,217,3.0,12.0,50,0.00,,,0.00,weatherlink.com 1.10,2013-03-08 15:20:00,
2013-03-08 10:35:00,47.1,29.0,30.18,NNW,327,4.0,13.0,50,0.00,,,0.00,weatherlink.com 1.10,2013-03-08 15:35:00,
2013-03-08 10:50:00,47.7,29.0,30.17,WSW,249,0.0,11.0,48,0.00,,,0.00,weatherlink.com 1.10,2013-03-08 15:50:00,
2013-03-08 11:20:00,48.7,29.0,30.17,WSW,249,5.0,13.0,46,0.00,,,0.00,weatherlink.com 1.10,2013-03-08 16:20:00,
2013-03-08 11:35:00,49.0,29.0,30.16,NW,314,5.0,10.0,46,0.00,,,0.00,weatherlink.com 1.10,2013-03-08 16:35:00,
2013-03-08 11:50:00,49.3,29.0,30.16,WNW,283,3.0,12.0,46,0.00,,,0.00,weatherlink.com 1.10,2013-03-08 16:50:00,
2013-03-08 12:05:00,50.5,29.0,30.14,NW,316,2.0,10.0,43,0.00,,,0.00,weatherlink.com 1.10,2013-03-08 17:05:00,
2013-03-08 12:20:00,50.7,29.0,30.14,NW,323,2.0,13.0,43,0.00,,,0.00,weatherlink.com 1.10,2013-03-08 17:20:00,
2013-03-08 12:35:00,51.2,28.0,30.12,WNW,298,3.0,12.0,41,0.00,,,0.00,weatherlink.com 1.10,2013-03-08 17:35:00,
2013-03-08 12:50:00,50.9,28.0,30.12,NW,323,5.0,13.0,41,0.00,,,0.00,weatherlink.com 1.10,2013-03-08 17:50:00,
2013-03-08 13:05:00,51.7,28.0,30.11,WNW,287,3.0,7.0,41,0.00,,,0.00,weatherlink.com 1.10,2013-03-08 18:05:00,
2013-03-08 13:20:00,52.1,28.0,30.10,WNW,289,3.0,10.0,39,0.00,,,0.00,weatherlink.com 1.10,2013-03-08 18:20:00,
2013-03-08 13:35:00,51.7,27.0,30.10,West,267,2.0,11.0,39,0.00,,,0.00,weatherlink.com 1.10,2013-03-08 18:35:00,
2013-03-08 13:50:00,52.6,30.0,30.09,West,276,5.0,8.0,42,0.00,,,0.00,weatherlink.com 1.10,2013-03-08 18:50:00,
2013-03-08 14:05:00,51.7,27.0,30.10,West,271,4.0,13.0,39,0.00,,,0.00,weatherlink.com 1.10,2013-03-08 19:05:00,
2013-03-08 14:20:00,52.3,28.0,30.09,West,269,5.0,10.0,40,0.00,,,0.00,weatherlink.com 1.10,2013-03-08 19:20:00,
2013-03-08 14:35:00,52.0,29.0,30.10,NW,311,3.0,16.0,41,0.00,,,0.00,weatherlink.com 1.10,2013-03-08 19:35:00,
2013-03-08 14:50:00,52.5,29.0,30.10,ENE,74,2.0,14.0,41,0.00,,,0.00,weatherlink.com 1.10,2013-03-08 19:50:00,
2013-03-08 15:05:00,52.5,30.0,30.09,NE,35,1.0,10.0,42,0.00,,,0.00,weatherlink.com 1.10,2013-03-08 20:05:00,
2013-03-08 15:20:00,52.3,28.0,30.09,NNW,339,3.0,10.0,40,0.00,,,0.00,weatherlink.com 1.10,2013-03-08 20:20:00,
2013-03-08 15:35:00,52.2,29.0,30.09,NNW,333,3.0,11.0,41,0.00,,,0.00,weatherlink.com 1.10,2013-03-08 20:35:00,
2013-03-08 15:50:00,52.6,29.0,30.09,WSW,238,1.0,9.0,41,0.00,,,0.00,weatherlink.com 1.10,2013-03-08 20:50:00,
2013-03-08 16:06:00,53.0,30.0,30.09,NNW,338,2.0,7.0,42,0.00,,,0.00,weatherlink.com 1.10,2013-03-08 21:06:00,
2013-03-08 16:21:00,52.9,30.0,30.10,WNW,297,1.0,12.0,42,0.00,,,0.00,weatherlink.com 1.10,2013-03-08 21:21:00,
2013-03-08 16:36:00,52.7,30.0,30.11,NW,325,1.0,8.0,42,0.00,,,0.00,weatherlink.com 1.10,2013-03-08 21:36:00,
2013-03-08 16:51:00,52.5,30.0,30.11,NW,306,1.0,9.0,43,0.00,,,0.00,weatherlink.com 1.10,2013-03-08 21:51:00,
2013-03-08 17:05:00,52.1,29.0,30.12,NW,304,1.0,12.0,42,0.00,,,0.00,weatherlink.com 1.10,2013-03-08 22:05:00,
2013-03-08 17:21:00,51.9,30.0,30.13,NNE,30,4.0,7.0,44,0.00,,,0.00,weatherlink.com 1.10,2013-03-08 22:21:00,
2013-03-08 17:36:00,51.2,30.0,30.13,West,269,1.0,7.0,45,0.00,,,0.00,weatherlink.com 1.10,2013-03-08 22:36:00,
2013-03-08 17:51:00,50.8,30.0,30.14,WSW,246,4.0,10.0,45,0.00,,,0.00,weatherlink.com 1.10,2013-03-08 22:51:00,
2013-03-08 18:06:00,49.9,30.0,30.14,WNW,291,3.0,4.0,47,0.00,,,0.00,weatherlink.com 1.10,2013-03-08 23:06:00,
2013-03-08 18:21:00,48.9,30.0,30.14,WNW,294,0.0,4.0,49,0.00,,,0.00,weatherlink.com 1.10,2013-03-08 23:21:00,
2013-03-08 18:36:00,47.9,31.0,30.15,NW,309,0.0,4.0,52,0.00,,,0.00,weatherlink.com 1.10,2013-03-08 23:36:00,
2013-03-08 18:51:00,47.3,31.0,30.16,WNW,302,0.0,4.0,54,0.00,,,0.00,weatherlink.com 1.10,2013-03-08 23:51:00,
2013-03-08 19:06:00,46.5,31.0,30.16,NW,304,0.0,1.0,55,0.00,,,0.00,weatherlink.com 1.10,2013-03-09 00:06:00,
2013-03-08 19:21:00,45.3,31.0,30.17,WNW,296,0.0,0.0,58,0.00,,,0.00,weatherlink.com 1.10,2013-03-09 00:21:00,
2013-03-08 19:37:00,45.2,31.0,30.16,NNW,342,0.0,2.0,59,0.00,,,0.00,weatherlink.com 1.10,2013-03-09 00:37:00,
2013-03-08 19:51:00,44.8,31.0,30.17,NW,308,1.0,1.0,60,0.00,,,0.00,weatherlink.com 1.10,2013-03-09 00:51:00,
2013-03-08 20:06:00,44.4,32.0,30.18,WNW,297,0.0,1.0,61,0.00,,,0.00,weatherlink.com 1.10,2013-03-09 01:06:00,
2013-03-08 20:21:00,44.0,31.0,30.19,NW,326,0.0,1.0,61,0.00,,,0.00,weatherlink.com 1.10,2013-03-09 01:21:00,
2013-03-08 20:36:00,43.9,31.0,30.19,NW,312,0.0,2.0,61,0.00,,,0.00,weatherlink.com 1.10,2013-03-09 01:36:00,
2013-03-08 20:51:00,44.3,31.0,30.19,NNE,15,1.0,3.0,60,0.00,,,0.00,weatherlink.com 1.10,2013-03-09 01:51:00,
2013-03-08 21:06:00,44.3,31.0,30.20,West,263,1.0,3.0,60,0.00,,,0.00,weatherlink.com 1.10,2013-03-09 02:06:00,
2013-03-08 21:21:00,44.0,31.0,30.21,NW,309,0.0,3.0,61,0.00,,,0.00,weatherlink.com 1.10,2013-03-09 02:21:00,
2013-03-08 21:36:00,44.0,31.0,30.21,North,8,0.0,5.0,61,0.00,,,0.00,weatherlink.com 1.10,2013-03-09 02:36:00,
2013-03-08 21:51:00,44.1,31.0,30.21,North,355,2.0,5.0,61,0.00,,,0.00,weatherlink.com 1.10,2013-03-09 02:51:00,
2013-03-08 22:06:00,43.9,31.0,30.21,NW,314,1.0,4.0,61,0.00,,,0.00,weatherlink.com 1.10,2013-03-09 03:06:00,
2013-03-08 22:21:00,44.1,31.0,30.21,WNW,286,2.0,5.0,61,0.00,,,0.00,weatherlink.com 1.10,2013-03-09 03:21:00,
2013-03-08 22:36:00,44.1,31.0,30.20,NNW,342,0.0,8.0,61,0.00,,,0.00,weatherlink.com 1.10,2013-03-09 03:36:00,
2013-03-08 22:51:00,44.0,31.0,30.20,WNW,285,2.0,8.0,61,0.00,,,0.00,weatherlink.com 1.10,2013-03-09 03:51:00,
2013-03-08 23:06:00,43.6,31.0,30.21,North,350,1.0,3.0,61,0.00,,,0.00,weatherlink.com 1.10,2013-03-09 04:06:00,
2013-03-08 23:21:00,43.2,31.0,30.21,NNW,327,4.0,4.0,62,0.00,,,0.00,weatherlink.com 1.10,2013-03-09 04:21:00,
2013-03-08 23:36:00,42.8,31.0,30.22,West,264,0.0,2.0,63,0.00,,,0.00,weatherlink.com 1.10,2013-03-09 04:36:00,
2013-03-08 23:51:00,42.5,31.0,30.22,WNW,293,0.0,4.0,64,0.00,,,0.00,weatherlink.com 1.10,2013-03-09 04:51:00,